Tracking 28792 objects as of 25-Apr-2024
HD Live streaming from Space Station
objects crossing your sky now

OICETS

Track OICETS now!
10-day predictions
OICETS is classified as:


NORAD ID: 28809
Int'l Code: 2005-031A
Perigee: 535.2 km
Apogee: 551.7 km
Inclination: 98.1 °
Period: 95.4 minutes
Semi major axis: 6914 km
RCS: 1.711 m2 (large)
Launch date: August 23, 2005
Source: Japan (JPN)
Launch site: TYURATAM MISSILE AND SPACE COMPLEX (TTMTR)

Study inter-satellite communications.
Your satellite tracking list
Your tracking list is empty




NASA's NSSDC Master Catalog

Two Line Element Set (TLE):
1 28809U 05031A   24115.52403096  .00022632  00000-0  13933-2 0  9994
2 28809  98.1484 303.4182 0011949 211.6083 148.4428 15.09955637 19718
Source of the keplerian elements: AFSPC